Overview Statistics Trail Chart Weather Telemetry Raw packets
 

This is the latest recevied weather packets stored in our database for station/object SV9TNF-51. If no packets are shown the sender has not sent any weather packets the latest 10 day(s).

<< 112 113 114 115 >>
Time Temp. Humidity Pressure Rain* Wind** Luminosity Snow
1787810485 29.44° C 65% 1011.5 hPa 0 mm 4.47 m/s, 56° - -
1787810185 29.44° C 65% 1011.2 hPa 0 mm 3.13 m/s, 83° - -
1787809886 29.44° C 67% 1011.2 hPa 0 mm 1.34 m/s, 127° - -
1787809585 28.89° C 66% 1011.2 hPa 0 mm 4.47 m/s, 64° - -
1787809285 28.33° C 72% 1011.2 hPa 0 mm 1.79 m/s, 133° - -
1787808984 28.33° C 72% 1011.2 hPa 0 mm 1.34 m/s, 107° - -
1787808684 28.33° C 72% 1011.2 hPa 0 mm 0.45 m/s, 129° - -
1787808384 27.78° C 72% 1011.2 hPa 0 mm 2.68 m/s, 331° - -
1787808084 27.78° C 72% 1011.2 hPa 0 mm 1.34 m/s, 123° - -
1787807785 27.22° C 72% 1011.2 hPa 0 mm 6.26 m/s, 357° - -
1787807484 27.22° C 72% 1011.2 hPa 0 mm 1.79 m/s, 124° - -
1787807184 26.67° C 73% 1011.2 hPa 0 mm 4.92 m/s, 297° - -
1787806884 26.67° C 74% 1011.2 hPa 0 mm 9.39 m/s, 13° - -
1787806584 26.11° C 75% 1011.2 hPa 0 mm 6.26 m/s, 317° - -
1787806284 26.11° C 76% 1011.2 hPa 0 mm 8.49 m/s, 339° - -
1787805983 25.56° C 76% 1011.2 hPa 0 mm 5.36 m/s, 315° - -
1787805683 25.56° C 76% 1011.2 hPa 0 mm 5.81 m/s, 321° - -
1787805383 25.56° C 76% 1010.8 hPa 0 mm 4.92 m/s, 329° - -
1787805083 25.56° C 76% 1010.8 hPa 0 mm 6.26 m/s, 336° - -
1787804783 25.56° C 75% 1010.8 hPa 0 mm 6.71 m/s, 332° - -
1787804483 25.56° C 76% 1010.8 hPa 0 mm 4.02 m/s, 325° - -
1787804183 25.56° C 78% 1010.8 hPa 0 mm 4.92 m/s, 331° - -
1787803883 25.56° C 76% 1010.8 hPa 0 mm 4.92 m/s, 191° - -
1787803583 25.56° C 76% 1010.8 hPa 0 mm 6.71 m/s, 353° - -

* Rain latest hour (hover to see other rain measurements)
** Current wind speed in m/s (hover to see current wind gust speed)